TAX09JF LFKC-LICR

Flight info

Callsign TAX09JF
Flight time 1h 3m
Altitude 39000
Route CAPCO DCT MIRSA DCT BEGUD DCT GISPA DCT PEPIX DCT AMANO DCT BUDIN DCT FOSQA
Aircraft A320/M-SDE3FGHIRWY/LB1

Departure

Time 2026-04-28 13:40
Airport Calvi Sainte Catherine Airport (LFKC)

Arrival

Time 2026-04-28 14:44
Airport Reggio Calabria Airport (LICR)
Time Latitude Longitude Altitude Speed Heading
2026-04-28 13:11 42.52520 8.79079 224 ft 0 kts 300°
2026-04-28 13:31 42.52519 8.79080 225 ft 2 kts 300°
2026-04-28 13:32 42.52507 8.79111 226 ft 4 kts 296°
2026-04-28 13:32 42.52498 8.79145 227 ft 4 kts 267°
2026-04-28 13:32 42.52501 8.79162 226 ft 2 kts 180°
2026-04-28 13:32 42.52506 8.79162 229 ft 1 kts 179°
2026-04-28 13:35 42.52495 8.79162 226 ft 10 kts 181°
2026-04-28 13:35 42.52434 8.79176 230 ft 2 kts 117°
2026-04-28 13:35 42.52435 8.79217 230 ft 12 kts 89°
2026-04-28 13:35 42.52379 8.79297 235 ft 11 kts 174°
2026-04-28 13:36 42.52324 8.79301 257 ft 6 kts 178°
2026-04-28 13:36 42.52225 8.79306 246 ft 23 kts 178°
2026-04-28 13:36 42.52093 8.79278 254 ft 15 kts 201°
2026-04-28 13:36 42.52058 8.79291 256 ft 5 kts 50°
2026-04-28 13:37 42.52101 8.79304 253 ft 0 kts
2026-04-28 13:39 42.52172 8.79303 250 ft 42 kts 359°
2026-04-28 13:39 42.52727 8.79300 212 ft 114 kts
2026-04-28 13:40 42.53695 8.79298 348 ft 151 kts 359°
2026-04-28 13:40 42.54733 8.79308 1060 ft 148 kts
2026-04-28 13:40 42.55764 8.79316 1699 ft 153 kts
2026-04-28 13:40 42.56894 8.79310 2088 ft 173 kts
2026-04-28 13:41 42.58171 8.79302 2358 ft 194 kts 360°
2026-04-28 13:41 42.59598 8.79293 2645 ft 216 kts 360°
2026-04-28 13:41 42.61158 8.79444 3068 ft 235 kts 15°
2026-04-28 13:41 42.62651 8.80513 3598 ft 256 kts 44°
2026-04-28 13:42 42.63575 8.82616 4332 ft 267 kts 77°
2026-04-28 13:42 42.63513 8.85128 5212 ft 272 kts 109°
2026-04-28 13:42 42.62801 8.87499 6188 ft 271 kts 115°
2026-04-28 13:42 42.62051 8.89831 7143 ft 273 kts 115°
2026-04-28 13:43 42.61282 8.92206 8014 ft 277 kts 116°
2026-04-28 13:43 42.60502 8.94614 8883 ft 281 kts 115°
2026-04-28 13:43 42.59712 8.97058 9764 ft 285 kts 116°
2026-04-28 13:43 42.58905 8.99556 10380 ft 298 kts 115°
2026-04-28 13:44 42.58042 9.02232 10653 ft 322 kts 115°
2026-04-28 13:44 42.57117 9.05110 10981 ft 341 kts 115°
2026-04-28 13:44 42.56161 9.08098 11617 ft 348 kts 115°
2026-04-28 13:44 42.55188 9.11142 12281 ft 356 kts 115°
2026-04-28 13:45 42.54193 9.14248 12954 ft 362 kts 115°
2026-04-28 13:45 42.53184 9.17396 13670 ft 367 kts 115°
2026-04-28 13:45 42.52160 9.20583 14338 ft 371 kts 115°
2026-04-28 13:45 42.51123 9.23805 14989 ft 375 kts 115°
2026-04-28 13:46 42.50073 9.27057 15643 ft 379 kts 115°
2026-04-28 13:46 42.49009 9.30345 16273 ft 383 kts 115°
2026-04-28 13:46 42.47952 9.33603 16902 ft 387 kts 115°
2026-04-28 13:46 42.46865 9.36952 17530 ft 390 kts 115°
2026-04-28 13:47 42.45766 9.40330 18127 ft 394 kts 115°
2026-04-28 13:47 42.44656 9.43747 18675 ft 398 kts 115°
2026-04-28 13:47 42.43536 9.47198 19175 ft 402 kts 115°
2026-04-28 13:47 42.42407 9.50675 19683 ft 405 kts 115°
2026-04-28 13:48 42.41265 9.54182 20197 ft 409 kts 115°
2026-04-28 13:48 42.40110 9.57711 20696 ft 412 kts 115°
2026-04-28 13:48 42.38943 9.61270 21195 ft 415 kts 115°
2026-04-28 13:48 42.37768 9.64857 21686 ft 419 kts 115°
2026-04-28 13:49 42.36585 9.68472 22161 ft 422 kts 115°
2026-04-28 13:49 42.35392 9.72117 22634 ft 426 kts 115°
2026-04-28 13:49 42.34184 9.75789 23101 ft 429 kts 115°
2026-04-28 13:49 42.32968 9.79482 23561 ft 432 kts 115°
2026-04-28 13:50 42.31741 9.83207 23956 ft 435 kts 115°
2026-04-28 13:50 42.30510 9.86949 24351 ft 438 kts 115°
2026-04-28 13:50 42.29266 9.90722 24734 ft 440 kts 115°
2026-04-28 13:50 42.28015 9.94507 25110 ft 443 kts 115°
2026-04-28 13:51 42.26753 9.98314 25484 ft 445 kts 115°
2026-04-28 13:51 42.25482 10.02136 25853 ft 448 kts 115°
2026-04-28 13:51 42.24185 10.06029 26222 ft 450 kts 115°
2026-04-28 13:51 42.22912 10.09840 26579 ft 453 kts 115°
2026-04-28 13:52 42.21598 10.13775 26938 ft 455 kts 115°
2026-04-28 13:52 42.20294 10.17675 27286 ft 458 kts 115°
2026-04-28 13:52 42.18983 10.21603 27626 ft 460 kts 115°
2026-04-28 13:52 42.17664 10.25552 27989 ft 463 kts 115°
2026-04-28 13:53 42.16337 10.29511 28334 ft 465 kts 115°
2026-04-28 13:53 42.15004 10.33486 28667 ft 467 kts 115°
2026-04-28 13:53 42.13660 10.37485 28983 ft 469 kts 115°
2026-04-28 13:53 42.12308 10.41493 29302 ft 471 kts 115°
2026-04-28 13:54 42.10951 10.45516 29596 ft 473 kts 115°
2026-04-28 13:54 42.09586 10.49561 29908 ft 475 kts 115°
2026-04-28 13:54 42.08214 10.53618 30187 ft 478 kts 115°
2026-04-28 13:54 42.06833 10.57691 30441 ft 480 kts 115°
2026-04-28 13:55 42.05444 10.61774 30772 ft 479 kts 115°
2026-04-28 13:55 42.04058 10.65847 31133 ft 478 kts 115°
2026-04-28 13:55 42.02674 10.69911 31482 ft 478 kts 115°
2026-04-28 13:55 42.01293 10.73966 31829 ft 477 kts 115°
2026-04-28 13:56 41.99913 10.78021 32171 ft 477 kts 115°
2026-04-28 13:56 41.98532 10.82072 32514 ft 476 kts 115°
2026-04-28 13:56 41.97148 10.86113 32853 ft 476 kts 115°
2026-04-28 13:56 41.95761 10.90155 33189 ft 475 kts 115°
2026-04-28 13:57 41.94376 10.94184 33528 ft 475 kts 115°
2026-04-28 13:57 41.92992 10.98210 33868 ft 475 kts 115°
2026-04-28 13:57 41.91612 11.02226 34194 ft 474 kts 115°
2026-04-28 13:57 41.90228 11.06251 34479 ft 474 kts 115°
2026-04-28 13:58 41.88844 11.10268 34772 ft 474 kts 115°
2026-04-28 13:58 41.87455 11.14278 35032 ft 474 kts 115°
2026-04-28 13:58 41.86065 11.18289 35295 ft 474 kts 115°
2026-04-28 13:58 41.84672 11.22299 35548 ft 474 kts 115°
2026-04-28 13:59 41.83280 11.26299 35803 ft 474 kts 115°
2026-04-28 13:59 41.81873 11.30296 36037 ft 474 kts 118°
2026-04-28 13:59 41.80178 11.34068 36283 ft 472 kts 127°
2026-04-28 13:59 41.78098 11.37462 36525 ft 470 kts 136°
2026-04-28 14:00 41.75780 11.40551 36730 ft 470 kts 137°
2026-04-28 14:00 41.73456 11.43627 36954 ft 470 kts 137°
2026-04-28 14:00 41.71126 11.46710 37073 ft 471 kts 137°
2026-04-28 14:00 41.68794 11.49794 37094 ft 471 kts 137°
2026-04-28 14:01 41.64888 11.54958 37089 ft 471 kts 137°
2026-04-28 14:01 41.60223 11.61115 37077 ft 471 kts 137°
2026-04-28 14:02 41.55558 11.67262 37091 ft 471 kts 137°
2026-04-28 14:02 41.50894 11.73401 37092 ft 471 kts 137°
2026-04-28 14:03 41.46224 11.79532 37097 ft 471 kts 137°
2026-04-28 14:03 41.41543 11.85658 37090 ft 472 kts 137°
2026-04-28 14:04 41.36864 11.91775 37089 ft 472 kts 137°
2026-04-28 14:04 41.32170 11.97877 37084 ft 472 kts 137°
2026-04-28 14:05 41.27477 12.03979 37090 ft 472 kts 137°
2026-04-28 14:05 41.22787 12.10083 37092 ft 472 kts 137°
2026-04-28 14:06 41.18095 12.16161 37086 ft 471 kts 137°
2026-04-28 14:06 41.13060 12.21677 37090 ft 469 kts 146°
2026-04-28 14:07 41.07755 12.26718 37085 ft 469 kts 147°
2026-04-28 14:07 41.02453 12.31760 37090 ft 469 kts 147°
2026-04-28 14:08 40.97146 12.36797 37091 ft 469 kts 147°
2026-04-28 14:08 40.91835 12.41833 37113 ft 470 kts 147°
2026-04-28 14:09 40.86522 12.46860 37101 ft 470 kts 147°
2026-04-28 14:09 40.81207 12.51881 37104 ft 470 kts 147°
2026-04-28 14:10 40.75888 12.56896 37106 ft 470 kts 147°
2026-04-28 14:10 40.70566 12.61900 37107 ft 470 kts 147°
2026-04-28 14:11 40.65272 12.66863 37109 ft 470 kts 147°
2026-04-28 14:11 40.59942 12.71848 37090 ft 470 kts 147°
2026-04-28 14:12 40.54606 12.76841 37097 ft 471 kts 147°
2026-04-28 14:12 40.49263 12.81834 37106 ft 471 kts 147°
2026-04-28 14:13 40.43921 12.86816 37108 ft 471 kts 147°
2026-04-28 14:13 40.38571 12.91774 37090 ft 471 kts 148°
2026-04-28 14:14 40.33215 12.96725 37091 ft 472 kts 148°
2026-04-28 14:14 40.27854 13.01691 37093 ft 472 kts 148°
2026-04-28 14:15 40.22490 13.06652 37093 ft 472 kts 148°
2026-04-28 14:15 40.17117 13.11606 37096 ft 472 kts 148°
2026-04-28 14:16 40.11740 13.16545 37089 ft 473 kts 148°
2026-04-28 14:16 40.06349 13.21492 37090 ft 474 kts 148°
2026-04-28 14:17 40.00951 13.26429 37095 ft 474 kts 148°
2026-04-28 14:17 39.95550 13.31368 37095 ft 474 kts 148°
2026-04-28 14:18 39.90152 13.36296 37094 ft 474 kts 148°
2026-04-28 14:18 39.84744 13.41211 37095 ft 474 kts 148°
2026-04-28 14:19 39.79336 13.46129 37097 ft 474 kts 148°
2026-04-28 14:19 39.73932 13.51043 37094 ft 474 kts 148°
2026-04-28 14:20 39.68516 13.55948 37094 ft 475 kts 148°
2026-04-28 14:20 39.63088 13.60845 37083 ft 475 kts 148°
2026-04-28 14:21 39.57618 13.65781 37078 ft 476 kts 148°
2026-04-28 14:21 39.52180 13.70683 37079 ft 476 kts 148°
2026-04-28 14:22 39.46729 13.75571 37082 ft 477 kts 148°
2026-04-28 14:22 39.41430 13.80746 37059 ft 481 kts 139°
2026-04-28 14:23 39.36825 13.87063 37068 ft 484 kts 136°
2026-04-28 14:23 39.32223 13.93426 37069 ft 485 kts 136°
2026-04-28 14:24 39.27611 13.99779 37071 ft 485 kts 136°
2026-04-28 14:24 39.22990 14.06130 37072 ft 486 kts 136°
2026-04-28 14:25 39.18369 14.12485 37078 ft 486 kts 136°
2026-04-28 14:25 39.13740 14.18837 37053 ft 486 kts 136°
2026-04-28 14:26 39.09091 14.25185 37059 ft 488 kts 136°
2026-04-28 14:26 39.04484 14.31464 37061 ft 489 kts 136°
2026-04-28 14:27 38.99804 14.37831 36343 ft 492 kts 136°
2026-04-28 14:27 38.97439 14.41048 35430 ft 497 kts 136°
2026-04-28 14:27 38.95048 14.44294 34445 ft 503 kts 136°
2026-04-28 14:28 38.92637 14.47571 33595 ft 504 kts 136°
2026-04-28 14:28 38.90224 14.50852 32683 ft 505 kts 135°
2026-04-28 14:28 38.87775 14.54178 31733 ft 506 kts 136°
2026-04-28 14:28 38.85348 14.57462 30789 ft 508 kts 136°
2026-04-28 14:29 38.82955 14.60694 30040 ft 504 kts 136°
2026-04-28 14:29 38.80563 14.63923 28692 ft 496 kts 136°
2026-04-28 14:29 38.78230 14.67071 27998 ft 476 kts 136°
2026-04-28 14:29 38.76145 14.69880 27377 ft 460 kts 136°
2026-04-28 14:30 38.73946 14.72839 26712 ft 457 kts 136°
2026-04-28 14:30 38.71763 14.75770 26044 ft 453 kts 135°
2026-04-28 14:30 38.69596 14.78675 25388 ft 450 kts 135°
2026-04-28 14:30 38.67443 14.81559 24739 ft 446 kts 135°
2026-04-28 14:31 38.65312 14.84414 24123 ft 442 kts 135°
2026-04-28 14:31 38.63200 14.87247 23466 ft 438 kts 135°
2026-04-28 14:31 38.61108 14.90054 22842 ft 433 kts 136°
2026-04-28 14:31 38.59045 14.92819 22308 ft 426 kts 136°
2026-04-28 14:32 38.57010 14.95540 21777 ft 420 kts 136°
2026-04-28 14:32 38.55001 14.98214 21264 ft 414 kts 136°
2026-04-28 14:32 38.53017 15.00855 20772 ft 409 kts 136°
2026-04-28 14:32 38.51148 15.03571 20259 ft 406 kts 127°
2026-04-28 14:33 38.49743 15.06726 19757 ft 404 kts 114°
2026-04-28 14:33 38.48930 15.10139 19246 ft 401 kts 101°
2026-04-28 14:33 38.48715 15.13678 18691 ft 400 kts 88°
2026-04-28 14:33 38.49079 15.17188 18087 ft 399 kts 78°
2026-04-28 14:34 38.49766 15.24150 16928 ft 394 kts 96°
2026-04-28 14:34 38.49142 15.27526 16353 ft 391 kts 112°
2026-04-28 14:34 38.48331 15.29566 15988 ft 388 kts 124°
2026-04-28 14:35 38.45907 15.32900 15276 ft 382 kts 145°
2026-04-28 14:35 38.43633 15.34614 14746 ft 378 kts 153°
2026-04-28 14:35 38.41316 15.36192 14217 ft 377 kts 153°
2026-04-28 14:35 38.39006 15.37765 13660 ft 376 kts 153°
2026-04-28 14:36 38.36706 15.39327 13105 ft 373 kts 153°
2026-04-28 14:36 38.34427 15.40874 12561 ft 370 kts 153°
2026-04-28 14:36 38.32195 15.42386 12015 ft 367 kts 153°
2026-04-28 14:36 38.29923 15.43924 11465 ft 363 kts 153°
2026-04-28 14:37 38.27698 15.45432 10911 ft 361 kts 153°
2026-04-28 14:37 38.25499 15.46924 10521 ft 353 kts 153°
2026-04-28 14:37 38.23439 15.48420 9963 ft 330 kts 148°
2026-04-28 14:37 38.21650 15.50115 9194 ft 312 kts 140°
2026-04-28 14:38 38.20160 15.52050 8294 ft 302 kts 128°
2026-04-28 14:38 38.19059 15.54042 8723 ft 251 kts 132°
2026-04-28 14:38 38.17814 15.55407 8733 ft 230 kts 143°
2026-04-28 14:38 38.16696 15.56885 8061 ft 232 kts 114°
2026-04-28 14:39 38.16606 15.58721 7957 ft 203 kts 66°
2026-04-28 14:39 38.17272 15.60126 7930 ft 176 kts 61°
2026-04-28 14:39 38.17563 15.61602 7651 ft 177 kts 97°
2026-04-28 14:39 38.16877 15.62882 6896 ft 186 kts 156°
2026-04-28 14:40 38.15612 15.62927 5810 ft 195 kts 206°
2026-04-28 14:40 38.15227 15.62603 5353 ft 200 kts 223°
2026-04-28 14:40 38.14905 15.60408 4138 ft 203 kts 299°
2026-04-28 14:40 38.15977 15.59515 3859 ft 183 kts 355°
2026-04-28 14:41 38.17054 15.60113 3503 ft 170 kts 58°
2026-04-28 14:41 38.17145 15.61469 3080 ft 157 kts 121°
2026-04-28 14:41 38.16259 15.62180 2547 ft 156 kts 170°
2026-04-28 14:41 38.15202 15.62388 2146 ft 152 kts 171°
2026-04-28 14:42 38.14161 15.62564 1741 ft 150 kts 172°
2026-04-28 14:42 38.13123 15.62710 1286 ft 150 kts 174°
2026-04-28 14:42 38.12085 15.62830 892 ft 146 kts 176°
2026-04-28 14:42 38.11176 15.63039 749 ft 141 kts 168°
2026-04-28 14:43 38.10240 15.63400 478 ft 138 kts 165°
2026-04-28 14:43 38.09335 15.63788 330 ft 137 kts 159°
2026-04-28 14:43 38.08472 15.64305 192 ft 137 kts 157°
2026-04-28 14:43 38.07641 15.64829 65 ft 124 kts 157°
2026-04-28 14:44 38.07134 15.65142 62 ft 25 kts 153°
2026-04-28 14:44 38.07062 15.65325 64 ft 24 kts 113°
2026-04-28 14:44 38.07086 15.65429 63 ft 11 kts 340°
2026-04-28 14:44 38.07146 15.65381 57 ft 11 kts 326°
2026-04-28 14:45 38.07212 15.65337 57 ft 10 kts 333°
2026-04-28 14:45 38.07275 15.65300 57 ft 10 kts 347°
2026-04-28 14:45 38.07304 15.65325 62 ft 0 kts 56°